Weather History for Danbury, CT

Change the Weather History Date:

Sunday, May 19, 2013

  Actual Average Record
Temperature  
Mean Temperature 55 °F -  
Max Temperature 57 °F 71 °F 97 °F (1986)
Min Temperature 53 °F 48 °F 32 °F (2002)
Degree Days  
Heating Degree Days 10    
Growing Degree Days 5 (Base 50)    
Moisture  
Dew Point 52 °F    
Average Humidity 88    
Maximum Humidity 94    
Minimum Humidity 69    
Precipitation  
Precipitation 0.25 in - - ()
Sea Level Pressure  
Sea Level Pressure 30.29 in    
Wind  
Wind Speed 4 mph (SE)    
Max Wind Speed 8 mph    
Max Gust Speed 16 mph    
Visibility 4 miles    
Events Rain    
Averages and records for this station are not official NWS values.
T = Trace of Precipitation, MM = Missing Value Source: NWS Daily Summary

Daily Weather History Graph

Daily Weather History Graph

Search for Another Location

Airport:

Trip Planner

Search our weather history database for the weather conditions in past years. The results will help you decide how hot, cold, wet, or windy it might be!

Date:

Astronomy

May. 19, 2013 Rise Set
Actual Time 5:31 AM EDT 8:10 PM EDT
Civil Twilight 4:59 AM EDT 8:42 PM EDT
Nautical Twilight 4:19 AM EDT 9:22 PM EDT
Astronomical Twilight 3:34 AM EDT 10:07 PM EDT
Moon 2:07 PM EDT (5/19) 1:57 AM EDT (5/19)
Length of Visible Light 15h 42m
Length of Day
14h 38m
Waxing Gibbous, 65% of the Moon is Illuminated
May 19
Waxing Gibbous
May 25
Full
May 31
Last Quarter
Jun 8
New
Jun 16
First Quarter

Hourly Weather History & Observations

Time (EDT) Temp. Dew Point Humidity Pressure Visibility Wind Dir Wind Speed Gust Speed Precip Events Conditions
12:53 AM 55.0 °F 51.1 °F 86% 30.30 in 10.0 mi Calm Calm - N/A   Overcast
1:53 AM 55.9 °F 48.9 °F 77% 30.29 in 10.0 mi Calm Calm - N/A   Overcast
2:53 AM 55.9 °F 46.0 °F 69% 30.29 in 10.0 mi SSW 5.8 mph - N/A   Overcast
3:53 AM 55.9 °F 46.9 °F 72% 30.30 in 10.0 mi Calm Calm - N/A   Overcast
4:05 AM 55.4 °F 46.4 °F 72% 30.30 in 10.0 mi SSE 3.5 mph - N/A   Overcast
4:30 AM 55.4 °F 46.4 °F 72% 30.30 in 10.0 mi SSE 3.5 mph - N/A   Overcast
4:53 AM 55.0 °F 48.0 °F 77% 30.30 in 10.0 mi Variable 5.8 mph - N/A   Overcast
6:44 AM 53.6 °F 51.8 °F 94% 30.32 in 2.5 mi Calm Calm - 0.06 in Rain Rain
6:53 AM 54.0 °F 52.0 °F 93% 30.32 in 2.0 mi ESE 3.5 mph - 0.08 in Rain Rain
8:53 AM 55.9 °F 52.0 °F 87% 30.34 in 10.0 mi South 4.6 mph - 0.01 in   Overcast
9:53 AM 55.9 °F 53.1 °F 90% 30.34 in 5.0 mi SE 3.5 mph - 0.00 in Rain Light Rain
10:53 AM 55.9 °F 53.1 °F 90% 30.35 in 4.0 mi South 3.5 mph - 0.01 in Rain Light Rain
11:39 AM 57.2 °F 53.6 °F 88% 30.34 in 2.0 mi SE 5.8 mph - 0.01 in Rain Light Rain
11:49 AM 57.2 °F 53.6 °F 88% 30.34 in 1.8 mi Variable 6.9 mph - 0.02 in Rain Light Rain
11:53 AM 55.9 °F 53.1 °F 90% 30.34 in 2.0 mi SE 6.9 mph - 0.02 in Rain Light Rain
12:33 PM 55.4 °F 53.6 °F 94% 30.33 in 2.0 mi SSE 5.8 mph - 0.02 in Rain Light Rain
12:53 PM 55.9 °F 53.1 °F 90% 30.32 in 2.0 mi SSE 8.1 mph 16.1 mph 0.04 in Rain Light Rain
12:59 PM 55.4 °F 53.6 °F 94% 30.32 in 1.8 mi SE 6.9 mph 16.1 mph 0.00 in Rain Light Rain
1:05 PM 55.4 °F 53.6 °F 94% 30.32 in 2.0 mi SSE 6.9 mph - 0.01 in Rain Light Rain
1:15 PM 55.4 °F 53.6 °F 94% 30.32 in 6.0 mi Variable 5.8 mph - 0.01 in Rain Light Rain
1:39 PM 55.4 °F 53.6 °F 94% 30.31 in 1.8 mi Variable 6.9 mph - 0.01 in Rain Light Rain
1:53 PM 55.9 °F 53.1 °F 90% 30.31 in 1.5 mi SE 8.1 mph - 0.02 in Rain Light Rain
2:09 PM 55.4 °F 53.6 °F 94% 30.30 in 2.0 mi SSE 6.9 mph - 0.00 in Rain Light Rain
2:31 PM 55.4 °F 53.6 °F 94% 30.30 in 1.8 mi SE 5.8 mph - 0.01 in   Overcast
3:51 PM 55.4 °F 53.6 °F 94% 30.28 in 1.5 mi SE 4.6 mph - 0.01 in Rain Light Rain
3:53 PM 55.9 °F 54.0 °F 93% 30.27 in 1.5 mi Variable 4.6 mph - 0.01 in Rain Light Rain
4:21 PM 57.2 °F 53.6 °F 88% 30.26 in 2.0 mi ESE 3.5 mph - 0.01 in   Overcast
4:53 PM 57.0 °F 54.0 °F 89% 30.26 in 2.0 mi Variable 3.5 mph - 0.01 in   Overcast
5:00 PM 57.2 °F 53.6 °F 88% 30.26 in 1.8 mi Variable 3.5 mph - N/A   Overcast
5:53 PM 57.0 °F 54.0 °F 89% 30.25 in 1.8 mi East 3.5 mph - 0.02 in Rain Light Rain
6:53 PM 55.9 °F 54.0 °F 93% 30.25 in 1.8 mi SE 6.9 mph - 0.00 in   Overcast
7:53 PM 55.9 °F 54.0 °F 93% 30.23 in 1.8 mi ESE 8.1 mph - 0.01 in   Overcast
8:53 PM 55.9 °F 53.1 °F 90% 30.24 in 2.0 mi East 5.8 mph - 0.01 in   Overcast
9:13 PM 55.4 °F 53.6 °F 94% 30.23 in 3.0 mi ESE 4.6 mph - 0.01 in   Overcast
9:40 PM 55.4 °F 53.6 °F 94% 30.23 in 4.0 mi East 5.8 mph - 0.01 in   Overcast
9:53 PM 55.9 °F 53.1 °F 90% 30.23 in 4.0 mi ESE 3.5 mph - 0.01 in   Overcast
10:53 PM 55.9 °F 54.0 °F 93% 30.22 in 5.0 mi SSE 3.5 mph - N/A   Overcast